sat.trackr.live / text

‹ back to catalog

STARLINK-32437

NORAD 63001 · 2025-031W

PAYLOAD ACTIVE UNKNOWN

§ Identity

Operator
Country
US
Launch date
2025-02-11
Launch site
AFETR
Launch vehicle
Mass (kg)
RCS (m²)

Purposes: comms

External: N2YO · Heavens-Above · Gunter

§ Orbital elements

Epoch: 2026-09-20T18:14:27.437856Z

Period
94.27 min
Inclination
42.9995°
Eccentricity
0.0000896
Mean motion
15.27591686 rev/d
Perigee alt
482.4 km
Apogee alt
483.6 km
Semi-major
6,861.2 km
B*
6.0410e-4
RAAN
122.1167°
Arg perigee
271.8497°
Mean anomaly
88.2252°
Rev number
9,092

§ Raw data

STARLINK-324371 63001U 25031W   26263.76003979  .00016404  00000+0  60410-3 0  99992 63001  42.9995 122.1167 0000896 271.8497  88.2252 15.27591686 90928

JSON: /api/v1/satellites/63001 · /tle

For live sub-satellite position, see the globe view (requires WebGL).

§ Visibility from observer

Set your observer location to see the next 7 days of passes ≥ 10°. The values pass through the URL so the page stays shareable.

No JS? Fill the form by hand. The geolocation button needs JavaScript.